Location: Whelan
(46.7841°N, 117.1166°W)
Time: 01:45:37
(UTC+00:00)

Envisat - Pass Details

Date: 23 April 2024
Orbit: 762 x 764 km, 98.3° (Epoch: 24 May)

Event Time Altitude Azimuth Distance (km) Brightness Sun altitude
Rises 10:24:39 0° 22° (NNE) 3,239 7.5 -20.8°
Reaches altitude 10° 10:27:14 10° 33° (NNE) 2,308 6.6 -20.5°
Maximum altitude 10:31:43 31° 95° (E) 1,329 4.6 -19.9°
Drops below altitude 10° 10:36:09 10° 157° (SSE) 2,291 5.2 -19.4°
Enters shadow 10:36:38 - 159° (SSE) 2,457 5.4 -19.4°
